Montpelier, VT

7:24 AM EDT on May 27, 2017 (GMT -0400)
Knapp State

Weather History for KMPV - April, 2013

Change the Weather History Date:

Saturday, April 20, 2013

  Actual Average Record
Temperature  
Mean Temperature 40 °F 44 °F  
Max Temperature 49 °F 56 °F 80 °F (1987)
Min Temperature 31 °F 33 °F 18 °F (2001)
Degree Days  
Heating Degree Days 25 20  
Month to date heating degree days 529 495  
Since 1 July heating degree days 7142 7520  
Cooling Degree Days 0 0  
Month to date cooling degree days 0 0  
Year to date cooling degree days 0 0  
Moisture  
Dew Point 27 °F    
Average Humidity 60    
Maximum Humidity 85    
Minimum Humidity 34    
Precipitation  
Precipitation 0.04 in 0.09 in 1.11 in (1950)
Month to date precipitation 1.93 1.74  
Year to date precipitation 5.06 8.62  
Sea Level Pressure  
Sea Level Pressure 29.90 in    
Wind  
Wind Speed 10 mph (WSW)    
Max Wind Speed 22 mph    
Max Gust Speed 32 mph    
Visibility 10 miles    
Events Rain    
T = Trace of Precipitation, MM = Missing Value Source: NWS Daily Summary

Daily Weather History Graph

Daily Weather History Graph

Search for Another Location

Airport or City:

Trip Planner

Search our weather history database for the weather conditions in past years. The results will help you decide how hot, cold, wet, or windy it might be!

Date:

Astronomy

Apr. 20, 2013 Rise Set
Actual Time 5:58 AM EDT 7:40 PM EDT
Civil Twilight 5:27 AM EDT 8:11 PM EDT
Nautical Twilight 4:50 AM EDT 8:49 PM EDT
Astronomical Twilight 4:09 AM EDT 9:29 PM EDT
Moon 2:10 PM EDT (4/20) 2:57 AM EDT (4/20)
Length of Visible Light 14h 44m
Length of Day
13h 42m
Waxing Gibbous, 71% of the Moon is Illuminated
Apr 20
Waxing Gibbous
Apr 25
Full
May 2
Last Quarter
May 9
New
May 18
First Quarter

Hourly Weather History & Observations

Time (EDT) Temp. Windchill Dew Point Humidity Pressure Visibility Wind Dir Wind Speed Gust Speed Precip Events Conditions
12:51 AM 46.9 °F - 41.0 °F 80% 29.70 in 10.0 mi West 15.0 mph 23.0 mph 0.01 in   Overcast
1:51 AM 44.1 °F - 37.0 °F 76% 29.71 in 10.0 mi Calm Calm - 0.00 in   Mostly Cloudy
2:51 AM 43.0 °F 40.3 °F 36.0 °F 76% 29.71 in 10.0 mi West 4.6 mph - 0.00 in   Overcast
3:09 AM 42.8 °F 41.1 °F 37.4 °F 81% 29.71 in 10.0 mi SW 3.5 mph - 0.00 in Rain Light Rain
3:51 AM 39.9 °F 37.8 °F 35.1 °F 83% 29.72 in 10.0 mi South 3.5 mph - 0.02 in   Overcast
4:51 AM 39.9 °F - 36.0 °F 86% 29.74 in 10.0 mi Calm Calm - 0.02 in Rain Light Rain
5:13 AM 39.2 °F 35.9 °F 35.6 °F 87% 29.73 in 10.0 mi South 4.6 mph - 0.00 in   Overcast
5:51 AM 39.0 °F 35.7 °F 34.0 °F 82% 29.74 in 10.0 mi SW 4.6 mph - 0.00 in   Overcast
6:51 AM 39.0 °F 36.8 °F 32.0 °F 76% 29.78 in 10.0 mi WSW 3.5 mph - N/A   Overcast
7:51 AM 39.9 °F - 30.9 °F 70% 29.79 in 10.0 mi Calm Calm - N/A   Overcast
8:51 AM 42.1 °F 37.7 °F 28.9 °F 60% 29.78 in 10.0 mi Variable 6.9 mph 17.3 mph N/A   Scattered Clouds
9:51 AM 43.0 °F 36.0 °F 28.0 °F 56% 29.80 in 10.0 mi West 13.8 mph 20.7 mph N/A   Partly Cloudy
10:51 AM 45.0 °F 40.6 °F 28.9 °F 53% 29.81 in 10.0 mi WSW 8.1 mph - N/A   Partly Cloudy
11:51 AM 46.0 °F 39.3 °F 24.1 °F 42% 29.83 in 10.0 mi West 16.1 mph 23.0 mph N/A   Mostly Cloudy
12:51 PM 46.0 °F 39.9 °F 24.1 °F 42% 29.86 in 10.0 mi West 13.8 mph 20.7 mph N/A   Overcast
1:51 PM 48.0 °F - 21.0 °F 34% 29.87 in 10.0 mi West 12.7 mph 23.0 mph N/A   Mostly Cloudy
2:51 PM 46.9 °F - 21.9 °F 37% 29.90 in 10.0 mi West 12.7 mph 31.1 mph N/A   Mostly Cloudy
3:51 PM 45.0 °F 38.9 °F 24.1 °F 44% 29.94 in 10.0 mi WSW 12.7 mph 24.2 mph N/A   Mostly Cloudy
4:51 PM 45.0 °F 37.9 °F 21.0 °F 39% 29.98 in 10.0 mi WSW 16.1 mph 25.3 mph N/A   Overcast
5:51 PM 43.0 °F 35.7 °F 19.9 °F 40% 30.02 in 10.0 mi West 15.0 mph 26.5 mph N/A   Overcast
6:51 PM 39.9 °F 32.1 °F 19.0 °F 43% 30.07 in 10.0 mi West 13.8 mph 23.0 mph N/A   Mostly Cloudy
7:51 PM 37.9 °F 30.0 °F 18.0 °F 45% 30.13 in 10.0 mi West 12.7 mph 24.2 mph N/A   Overcast
8:51 PM 36.0 °F 27.5 °F 17.1 °F 46% 30.18 in 10.0 mi West 12.7 mph 21.9 mph N/A   Mostly Cloudy
9:51 PM 35.1 °F 26.4 °F 18.0 °F 50% 30.23 in 10.0 mi WNW 12.7 mph 21.9 mph N/A   Overcast
10:51 PM 34.0 °F 26.6 °F 17.1 °F 50% 30.26 in 10.0 mi West 9.2 mph 18.4 mph N/A   Overcast
11:51 PM 32.0 °F 22.1 °F 17.1 °F 54% 30.30 in 10.0 mi WNW 13.8 mph 20.7 mph N/A   Overcast